[[{"header":{"parameterUnit":"m.s-1","parameterCategory":1,"la1":30.2991,"la2":30.254,"lo1":-89.0895,"lo2":-89.0444,"dy":0.0017,"dx":0.0017,"nx":28,"ny":28,"refTime":"2025-09-17T03:00:00:Z","depth":0,"parameterNumber":2,"parameterNumberName":"U-component_of_WINDS"},"data":[0,0,0,0,0,0,0,0,0,0,0,0,0,0,0,0,0,0,0,0,0,0,0,0,0,0,0,0,0,0,0,0,0,0,0,0,0,0,0,0,0,0,0,0,0,0,0,0,0,0,0,0,0,0,0,0,0,0,-0.3949,-0.3948,0,-0.3883,-0.3883,-0.3882,-0.383,-0.383,-0.3829,-0.3829,-0.3762,-0.3761,-0.3759,0,0,0,0,0,0,0,0,0,0,0,0,0,-0.403,-0.4029,-0.3949,-0.3948,-0.3947,-0.3884,-0.3883,-0.3882,-0.3831,-0.383,-0.3829,-0.3829,-0.3762,-0.3761,-0.3759,0,0,0,0,0,0,0,0,0,0,0,0,0,-0.3983,-0.4029,-0.3949,-0.3914,-0.391,-0.3884,-0.3883,-0.3881,-0.3831,-0.383,-0.3829,-0.3828,-0.3763,-0.3761,-0.3759,-0.3762,0,0,-0.3753,-0.3752,0,0,0,0,0,0,0,0,-0.3986,-0.398,-0.392,-0.3916,-0.3912,-0.3864,-0.3887,-0.3841,-0.3831,-0.3861,-0.3829,-0.3828,-0.3797,-0.3792,-0.3781,-0.3759,-0.3756,-0.3753,-0.3752,-0.3751,-0.375,0,0,0,0,0,0,0,-0.3989,-0.3983,-0.3923,-0.3919,-0.3914,-0.3902,-0.3894,-0.3878,-0.3834,-0.3858,-0.3854,-0.3847,-0.3794,-0.3783,-0.3779,-0.3755,-0.3753,-0.3751,-0.375,-0.3749,-0.3735,-0.3736,0,0,0,0,0,0,-0.3998,-0.3986,-0.3925,-0.3921,-0.3948,-0.3901,-0.3893,-0.388,-0.3834,-0.3826,-0.3848,-0.3845,-0.3787,-0.3782,-0.3777,-0.3779,-0.3751,-0.3749,-0.3748,-0.3734,-0.3735,-0.3736,0,0,0,0,0,0,-0.4,-0.3993,-0.3927,-0.3952,-0.3943,-0.39,-0.3887,-0.3879,-0.3868,-0.3826,-0.3818,-0.3845,-0.3786,-0.378,-0.3767,-0.3776,-0.3748,-0.3746,-0.3733,-0.3734,-0.3735,-0.3783,0,0,0,0,0,0,-0.4002,-0.3994,-0.3994,-0.3953,-0.3942,-0.3918,-0.3888,-0.3879,-0.3865,-0.3861,-0.3821,-0.3814,-0.3785,-0.377,-0.3765,-0.3773,-0.3745,-0.3732,-0.3734,-0.3735,-0.378,-0.3785,-0.379,0,0,0,0,0,-0.4005,-0.4009,-0.3994,-0.3987,-0.3941,-0.3919,-0.3913,-0.388,-0.3866,-0.3866,-0.384,-0.3815,-0.3776,-0.3769,-0.3763,-0.377,-0.3731,-0.3733,-0.3735,-0.3778,-0.3784,-0.379,0,0,0,0,0,0,-0.4052,-0.4003,-0.3986,-0.3976,-0.3952,-0.391,-0.3909,-0.3887,-0.3866,-0.3863,-0.3823,-0.3815,-0.3807,-0.3787,-0.3781,-0.3772,-0.375,-0.3751,-0.3785,-0.3791,-0.3796,-0.3801,-0.3743,0,0,0,0,0,-0.4062,-0.4047,-0.4005,-0.4001,-0.399,-0.3952,-0.3941,-0.3918,-0.3891,-0.3881,-0.3853,-0.3828,-0.3811,-0.38,-0.3781,-0.3777,-0.3769,-0.3779,-0.3784,-0.3788,-0.379,-0.3789,-0.3793,-0.3742,-0.3742,-0.3742,0,0,-0.4081,-0.4052,-0.4045,-0.401,-0.3988,-0.3975,-0.3944,-0.393,-0.3921,-0.3879,-0.3865,-0.3845,-0.3814,-0.3807,-0.3802,-0.379,-0.3802,-0.3791,-0.3794,-0.3793,-0.3791,-0.3796,-0.38,-0.3743,-0.3743,-0.3743,0,0,-0.4109,-0.4085,-0.408,-0.406,-0.4028,-0.4003,-0.4002,-0.3964,-0.3949,-0.3935,-0.3904,-0.3892,-0.3861,-0.3842,-0.3828,-0.3852,-0.3829,-0.3847,-0.3872,-0.3872,-0.3876,-0.3879,-0.3889,-0.3893,-0.3848,-0.3848,-0.3848,0,-0.4136,-0.4115,-0.408,-0.407,-0.4056,-0.4018,-0.4014,-0.3995,-0.3959,-0.3951,-0.3938,-0.3901,-0.3878,-0.3867,-0.3873,-0.3862,-0.3861,-0.3851,-0.3878,-0.3881,-0.3884,-0.3893,-0.3897,-0.385,-0.385,-0.385,-0.385,0,-0.4152,-0.4138,-0.4137,-0.4105,-0.4091,-0.4083,-0.4048,-0.4038,-0.4017,-0.3994,-0.3982,-0.3953,-0.3929,-0.3924,-0.3903,-0.3911,-0.3904,-0.3885,-0.3863,-0.3892,-0.39,-0.3903,-0.3854,-0.3853,-0.3852,-0.3852,0,0,-0.4207,-0.4156,-0.4157,-0.4142,-0.4106,-0.4094,-0.4086,-0.4063,-0.4056,-0.4033,-0.4026,-0.4002,-0.3985,-0.397,-0.3946,-0.3945,-0.3969,-0.3927,-0.3925,-0.3937,-0.3978,-0.3993,-0.3998,-0.3953,-0.3954,-0.3954,-0.3981,0,-0.423,-0.4213,-0.4182,-0.4175,-0.4163,-0.4128,-0.4121,-0.4098,-0.4077,-0.4064,-0.404,-0.4025,-0.4003,-0.3993,-0.3991,-0.3966,-0.3977,-0.3964,-0.3947,-0.3947,-0.3957,-0.4002,-0.4017,-0.4044,-0.3984,-0.3984,-0.3984,0,-0.4255,-0.4235,-0.4227,-0.4193,-0.4187,-0.4181,-0.4159,-0.4146,-0.4121,-0.4105,-0.4089,-0.4064,-0.4055,-0.4034,-0.4021,-0.4014,-0.4005,-0.3992,-0.3993,-0.399,-0.3968,-0.4002,-0.4051,-0.4056,-0.3989,-0.3988,-0.3988,0,-0.4299,-0.4269,-0.4261,-0.425,-0.421,-0.4207,-0.419,-0.4163,-0.4152,-0.4133,-0.4126,-0.4105,-0.4094,-0.408,-0.405,-0.4037,-0.4042,-0.4018,-0.403,-0.4031,-0.4033,-0.4033,-0.4083,-0.4026,-0.4025,-0.4025,-0.4025,0,-0.4329,-0.4325,-0.4281,-0.4276,-0.4272,-0.4237,-0.4235,-0.4215,-0.4192,-0.4183,-0.4151,-0.4144,-0.4105,-0.4094,-0.4071,-0.4065,-0.406,-0.4048,-0.4042,-0.4052,-0.4054,-0.4046,-0.4044,-0.4026,-0.4026,-0.4026,-0.4026,0,-0.4376,-0.4346,-0.4335,-0.4299,-0.4289,-0.4289,-0.4258,-0.4252,-0.423,-0.422,-0.4215,-0.418,-0.4165,-0.4134,-0.4111,-0.4095,-0.4096,-0.4084,-0.4105,-0.4101,-0.4116,-0.4116,-0.4163,-0.4169,-0.4107,-0.4108,-0.4108,0,-0.4398,-0.4395,-0.4359,-0.4351,-0.4336,-0.4323,-0.4312,-0.4278,-0.4268,-0.424,-0.4239,-0.4222,-0.4206,-0.4185,-0.4158,-0.414,-0.4129,-0.4147,-0.4126,-0.4136,-0.4131,-0.4132,-0.4133,-0.4152,-0.4153,-0.4153,-0.4154,0,-0.4441,-0.4426,-0.4411,-0.4392,-0.438,-0.4363,-0.4344,-0.4339,-0.4302,-0.4292,-0.4277,-0.4265,-0.4242,-0.4227,-0.4205,-0.4189,-0.4166,-0.4161,-0.4163,-0.4173,-0.4186,-0.4181,-0.4119,-0.416,-0.4159,-0.4159,-0.4158,-0.4158,-0.4477,-0.4474,-0.4448,-0.4433,-0.4416,-0.44,-0.4394,-0.4371,-0.4358,-0.4337,-0.4318,-0.4305,-0.4281,-0.4251,-0.4236,-0.4226,-0.4214,-0.4217,-0.4218,-0.422,-0.4225,-0.4187,-0.4222,-0.4222,-0.4222,-0.4221,-0.4221,0,-0.4519,-0.4502,-0.4488,-0.4464,-0.4453,-0.4432,-0.4411,-0.4403,-0.4392,-0.4372,-0.4358,-0.4342,-0.4327,-0.4299,-0.4282,-0.428,-0.4269,-0.4277,-0.4277,-0.4274,-0.4235,-0.4236,-0.4286,-0.4286,-0.4286,-0.4286,-0.4286,-0.4286,-0.454,-0.4534,-0.4517,-0.4503,-0.4485,-0.4472,-0.4462,-0.4448,-0.4432,-0.4416,-0.4403,-0.4385,-0.4363,-0.4344,-0.433,-0.4322,-0.4318,-0.433,-0.4319,-0.4283,-0.4277,-0.4271,-0.4271,-0.4329,-0.4329,-0.4359,-0.436,-0.436]},{"header":{"parameterUnit":"m.s-1","parameterCategory":1,"la1":30.2991,"la2":30.254,"lo1":-89.0895,"lo2":-89.0444,"dy":0.0017,"dx":0.0017,"nx":28,"ny":28,"refTime":"2025-09-17T03:00:00:Z","depth":0,"parameterNumber":3,"parameterNumberName":"V-component_of_WINDS"},"data":[0,0,0,0,0,0,0,0,0,0,0,0,0,0,0,0,0,0,0,0,0,0,0,0,0,0,0,0,0,0,0,0,0,0,0,0,0,0,0,0,0,0,0,0,0,0,0,0,0,0,0,0,0,0,0,0,0,0,3.7096,3.7095,0,3.7056,3.7056,3.7055,3.708,3.7081,3.7082,3.7083,3.7036,3.7033,3.7031,0,0,0,0,0,0,0,0,0,0,0,0,0,3.7186,3.7184,3.7096,3.7095,3.7095,3.7056,3.7056,3.7055,3.7079,3.7081,3.7082,3.7084,3.7036,3.7034,3.7031,0,0,0,0,0,0,0,0,0,0,0,0,0,3.7146,3.7183,3.7096,3.7102,3.7103,3.7057,3.7056,3.7055,3.7079,3.7081,3.7083,3.7084,3.7037,3.7034,3.703,3.6974,0,0,3.702,3.7018,0,0,0,0,0,0,0,0,3.7148,3.7143,3.7102,3.7102,3.7102,3.7075,3.707,3.7028,3.7079,3.7088,3.7083,3.7085,3.7047,3.7043,3.7031,3.6971,3.6969,3.7019,3.7017,3.7016,3.7015,0,0,0,0,0,0,0,3.7151,3.7145,3.708,3.7101,3.7101,3.7105,3.7101,3.7062,3.7058,3.7087,3.7089,3.7084,3.7047,3.7034,3.703,3.6969,3.7019,3.7016,3.7014,3.7013,3.6859,3.6857,0,0,0,0,0,0,3.7154,3.7147,3.7081,3.7079,3.713,3.7102,3.7098,3.7082,3.7058,3.7056,3.7083,3.7085,3.704,3.7034,3.7029,3.6959,3.7016,3.7012,3.701,3.6861,3.6858,3.6856,0,0,0,0,0,0,3.7156,3.7148,3.7083,3.7113,3.7105,3.7099,3.708,3.708,3.7067,3.7055,3.7054,3.7071,3.7041,3.7034,3.6987,3.6958,3.7011,3.7008,3.6863,3.686,3.6857,3.6821,0,0,0,0,0,0,3.7159,3.7149,3.7128,3.7113,3.7104,3.7044,3.7078,3.7078,3.7062,3.7065,3.7044,3.7042,3.7042,3.6992,3.6984,3.6954,3.7005,3.6866,3.6862,3.6858,3.6825,3.6817,3.6811,0,0,0,0,0,3.7162,3.7118,3.7127,3.7119,3.7079,3.7042,3.7037,3.704,3.706,3.7038,3.703,3.7042,3.6963,3.6987,3.6978,3.6947,3.6867,3.6863,3.6859,3.6828,3.6819,3.6811,0,0,0,0,0,0,3.7128,3.7116,3.7126,3.7077,3.7061,3.7047,3.7019,3.703,3.7006,3.7009,3.7012,3.7007,3.6958,3.6948,3.6975,3.689,3.6918,3.6912,3.6898,3.6889,3.6882,3.6885,3.7002,0,0,0,0,0,3.7116,3.709,3.708,3.7037,3.7029,3.7026,3.701,3.7014,3.6996,3.6988,3.6977,3.6957,3.6928,3.6908,3.6881,3.6824,3.6819,3.6798,3.6791,3.6785,3.6779,3.6746,3.6737,3.6842,3.6842,3.6842,0,0,3.7088,3.7079,3.7062,3.703,3.7018,3.6989,3.7019,3.6987,3.6964,3.6983,3.6939,3.693,3.6908,3.6856,3.6832,3.6846,3.6749,3.678,3.6775,3.6772,3.6741,3.6731,3.6722,3.6839,3.6839,3.684,0,0,3.7023,3.7015,3.6978,3.6965,3.6948,3.6946,3.6937,3.6921,3.6917,3.6873,3.6886,3.6858,3.6808,3.6792,3.6777,3.6707,3.6716,3.6697,3.666,3.6628,3.662,3.6612,3.6585,3.6576,3.6691,3.6691,3.6691,0,3.6991,3.6949,3.6957,3.6924,3.6908,3.6927,3.6888,3.6875,3.6848,3.6836,3.6853,3.679,3.6777,3.672,3.6703,3.6691,3.6679,3.6699,3.6621,3.6614,3.6607,3.6581,3.6571,3.6689,3.6689,3.669,3.669,0,3.6909,3.688,3.6852,3.6828,3.681,3.6774,3.6774,3.6755,3.6761,3.6756,3.6711,3.6696,3.6665,3.6653,3.6657,3.6596,3.6605,3.6621,3.6649,3.6594,3.657,3.656,3.6686,3.6687,3.6687,3.6688,0,0,3.682,3.6802,3.6791,3.678,3.6762,3.6738,3.6703,3.6675,3.6658,3.6639,3.6607,3.6565,3.658,3.6563,3.6566,3.6538,3.6481,3.6558,3.6557,3.6542,3.6412,3.6398,3.6387,3.6489,3.6487,3.6486,3.6413,0,3.6752,3.6693,3.6699,3.6641,3.6613,3.663,3.6599,3.6583,3.6578,3.6552,3.6546,3.6516,3.6539,3.6528,3.6503,3.6494,3.6455,3.65,3.6457,3.6455,3.6459,3.6374,3.636,3.6292,3.6404,3.6402,3.6401,0,3.6665,3.6645,3.6585,3.6571,3.656,3.6532,3.6507,3.6482,3.6464,3.6463,3.6445,3.6452,3.6414,3.6445,3.6391,3.6421,3.6404,3.6397,3.6395,3.6389,3.6423,3.6364,3.6271,3.6259,3.6386,3.6387,3.6388,0,3.6604,3.6562,3.652,3.6511,3.6494,3.6474,3.6465,3.6449,3.6432,3.641,3.6398,3.6371,3.6355,3.6332,3.6331,3.6354,3.6276,3.6307,3.6271,3.6271,3.6252,3.6253,3.6152,3.6245,3.6245,3.6245,3.6245,0,3.6526,3.6488,3.6493,3.6467,3.6424,3.6431,3.6388,3.6381,3.6367,3.6339,3.6352,3.6324,3.6326,3.6297,3.6296,3.6251,3.6244,3.624,3.6239,3.6237,3.6237,3.6224,3.6228,3.6243,3.6243,3.6244,3.6244,0,3.6449,3.6451,3.6407,3.6396,3.6392,3.636,3.635,3.6324,3.6321,3.6285,3.6277,3.6271,3.6239,3.6236,3.6198,3.6197,3.6141,3.6147,3.6148,3.6148,3.6111,3.6114,3.5997,3.5981,3.6086,3.6085,3.6084,0,3.6399,3.637,3.6357,3.634,3.6331,3.6303,3.6286,3.6292,3.6273,3.6251,3.6227,3.6196,3.6172,3.6118,3.6109,3.6079,3.6083,3.6044,3.6078,3.6077,3.608,3.6081,3.6077,3.6037,3.6035,3.6035,3.6034,0,3.6308,3.6311,3.6287,3.6264,3.6244,3.6225,3.6208,3.6192,3.6195,3.6174,3.6142,3.6123,3.6084,3.6052,3.6024,3.6012,3.6022,3.6024,3.6013,3.6009,3.601,3.6007,3.6127,3.6026,3.6026,3.6027,3.6027,3.6028,3.6242,3.6217,3.6203,3.6176,3.6164,3.6148,3.6123,3.6118,3.6092,3.6063,3.6067,3.6031,3.6013,3.5976,3.5962,3.5932,3.5945,3.5931,3.5927,3.5922,3.5918,3.6017,3.5927,3.5928,3.5928,3.5928,3.5928,0,3.615,3.6143,3.6118,3.6094,3.6072,3.6088,3.6069,3.6049,3.6017,3.6001,3.5977,3.5939,3.5909,3.5898,3.5868,3.5846,3.5849,3.5837,3.5838,3.5834,3.5909,3.592,3.5835,3.5835,3.5835,3.5835,3.5835,3.5835,3.61,3.6058,3.6059,3.6011,3.6003,3.597,3.5957,3.5941,3.5928,3.5886,3.5862,3.5856,3.5841,3.581,3.5782,3.578,3.5766,3.5752,3.5751,3.582,3.5829,3.5838,3.5849,3.575,3.575,3.5679,3.5678,3.5678]}]]